Time,TemperatureF,DewpointF,PressureIn,WindDirection,WindDirectionDegrees,WindSpeedMPH,WindSpeedGustMPH,Humidity,HourlyPrecipIn,Conditions,Clouds,dailyrainin,SolarRadiationWatts/m^2,SoftwareType,DateUTC
2013-06-10 00:02:00,66.0,60.0,-100.00,South,175,3.0,8.0,80,0.00,,,0.01,0.000000,,2013-06-10 05:02:00,
2013-06-10 00:12:00,64.0,59.0,-100.00,East,85,1.0,5.0,85,0.00,,,0.01,0.000000,,2013-06-10 05:12:00,
2013-06-10 00:32:00,64.0,59.0,-100.00,East,85,1.0,5.0,85,0.00,,,0.01,0.000000,,2013-06-10 05:32:00,
2013-06-10 00:42:00,64.0,59.0,-100.00,East,85,1.0,5.0,85,0.00,,,0.01,0.000000,,2013-06-10 05:42:00,
2013-06-10 00:52:00,64.0,59.0,-100.00,East,85,1.0,5.0,85,0.00,,,0.01,0.000000,,2013-06-10 05:52:00,
2013-06-10 01:02:00,64.0,59.0,-100.00,East,85,1.0,5.0,85,0.00,,,0.01,0.000000,,2013-06-10 06:02:00,
2013-06-10 01:12:00,60.0,58.0,-100.00,NE,51,0.0,3.0,94,0.00,,,0.01,0.000000,,2013-06-10 06:12:00,
2013-06-10 01:32:00,60.0,58.0,-100.00,NE,51,0.0,3.0,94,0.00,,,0.01,0.000000,,2013-06-10 06:32:00,
2013-06-10 01:42:00,60.0,58.0,-100.00,NE,51,0.0,3.0,94,0.00,,,0.01,0.000000,,2013-06-10 06:42:00,
2013-06-10 01:53:00,60.0,58.0,-100.00,NE,51,0.0,3.0,94,0.00,,,0.01,0.000000,,2013-06-10 06:53:00,
2013-06-10 02:02:00,60.0,58.0,-100.00,NE,51,0.0,3.0,94,0.00,,,0.01,0.000000,,2013-06-10 07:02:00,
2013-06-10 02:12:00,60.0,59.0,-100.00,North,355,1.0,4.0,95,0.00,,,0.01,0.000000,,2013-06-10 07:12:00,
2013-06-10 02:32:00,60.0,59.0,-100.00,North,355,1.0,4.0,95,0.00,,,0.01,0.000000,,2013-06-10 07:32:00,
2013-06-10 02:42:00,60.0,59.0,-100.00,North,355,1.0,4.0,95,0.00,,,0.01,0.000000,,2013-06-10 07:42:00,
2013-06-10 02:52:00,60.0,59.0,-100.00,North,355,1.0,4.0,95,0.00,,,0.01,0.000000,,2013-06-10 07:52:00,
2013-06-10 03:02:00,60.0,59.0,-100.00,North,355,1.0,4.0,95,0.00,,,0.01,0.000000,,2013-06-10 08:02:00,
2013-06-10 03:12:00,59.0,58.0,-100.00,NE,56,1.0,3.0,96,0.00,,,0.01,0.000000,,2013-06-10 08:12:00,
2013-06-10 03:32:00,59.0,58.0,-100.00,NE,56,1.0,3.0,96,0.00,,,0.01,0.000000,,2013-06-10 08:32:00,
2013-06-10 03:42:00,59.0,58.0,-100.00,NE,56,1.0,3.0,96,0.00,,,0.01,0.000000,,2013-06-10 08:42:00,
2013-06-10 03:52:00,59.0,58.0,-100.00,NE,56,1.0,3.0,96,0.00,,,0.01,0.000000,,2013-06-10 08:52:00,
2013-06-10 04:02:00,59.0,58.0,-100.00,NE,56,1.0,3.0,96,0.00,,,0.01,0.000000,,2013-06-10 09:02:00,
2013-06-10 04:12:00,58.0,57.0,-100.00,NNE,17,1.0,2.0,96,0.00,,,0.01,0.000000,,2013-06-10 09:12:00,
2013-06-10 04:32:00,58.0,57.0,-100.00,NNE,17,1.0,2.0,96,0.00,,,0.01,0.000000,,2013-06-10 09:32:00,
2013-06-10 04:43:00,58.0,57.0,-100.00,NNE,17,1.0,2.0,96,0.00,,,0.01,0.000000,,2013-06-10 09:43:00,
2013-06-10 04:53:00,58.0,57.0,-100.00,NNE,17,1.0,2.0,96,0.00,,,0.01,0.000000,,2013-06-10 09:53:00,
2013-06-10 05:03:00,58.0,57.0,-100.00,NNE,17,1.0,2.0,96,0.00,,,0.01,0.000000,,2013-06-10 10:03:00,
2013-06-10 05:12:00,57.0,56.0,-100.00,NNE,28,0.0,4.0,97,0.00,,,0.01,0.000000,,2013-06-10 10:12:00,
2013-06-10 05:33:00,57.0,56.0,-100.00,NNE,28,0.0,4.0,97,0.00,,,0.01,0.000000,,2013-06-10 10:33:00,
2013-06-10 05:42:00,57.0,56.0,-100.00,NNE,28,0.0,4.0,97,0.00,,,0.01,0.000000,,2013-06-10 10:42:00,
2013-06-10 05:52:00,57.0,56.0,-100.00,NNE,28,0.0,4.0,97,0.00,,,0.01,0.000000,,2013-06-10 10:52:00,
2013-06-10 06:03:00,57.0,56.0,-100.00,NNE,28,0.0,4.0,97,0.00,,,0.01,0.000000,,2013-06-10 11:03:00,
2013-06-10 09:12:00,68.0,59.0,-100.00,East,80,3.0,7.0,73,-99.99,,,0.00,339.000000,,2013-06-10 14:12:00,
2013-06-10 09:32:00,68.0,59.0,-100.00,East,80,3.0,7.0,73,-99.99,,,0.00,339.000000,,2013-06-10 14:32:00,
2013-06-10 09:42:00,68.0,59.0,-100.00,East,80,3.0,7.0,73,-99.99,,,0.00,339.000000,,2013-06-10 14:42:00,
2013-06-10 09:52:00,68.0,59.0,-100.00,East,80,3.0,7.0,73,-99.99,,,0.00,339.000000,,2013-06-10 14:52:00,
2013-06-10 10:02:00,68.0,59.0,-100.00,East,80,3.0,7.0,73,-99.99,,,0.00,339.000000,,2013-06-10 15:02:00,
2013-06-10 10:12:00,73.0,60.0,-100.00,NE,35,3.0,8.0,64,0.00,,,0.00,631.000000,,2013-06-10 15:12:00,
2013-06-10 10:33:00,73.0,60.0,-100.00,NE,35,3.0,8.0,64,0.00,,,0.00,631.000000,,2013-06-10 15:33:00,
2013-06-10 10:43:00,73.0,60.0,-100.00,NE,35,3.0,8.0,64,0.00,,,0.00,631.000000,,2013-06-10 15:43:00,
2013-06-10 10:53:00,73.0,60.0,-100.00,NE,35,3.0,8.0,64,0.00,,,0.00,631.000000,,2013-06-10 15:53:00,
2013-06-10 11:03:00,73.0,60.0,-100.00,NE,35,3.0,8.0,64,0.00,,,0.00,631.000000,,2013-06-10 16:03:00,
2013-06-10 11:12:00,75.0,62.0,-100.00,North,9,2.0,9.0,63,0.00,,,0.00,753.000000,,2013-06-10 16:12:00,
2013-06-10 11:33:00,75.0,62.0,-100.00,North,9,2.0,9.0,63,0.00,,,0.00,753.000000,,2013-06-10 16:33:00,
2013-06-10 11:43:00,75.0,62.0,-100.00,North,9,2.0,9.0,63,0.00,,,0.00,753.000000,,2013-06-10 16:43:00,
2013-06-10 11:53:00,75.0,62.0,-100.00,North,9,2.0,9.0,63,0.00,,,0.00,753.000000,,2013-06-10 16:53:00,
2013-06-10 12:03:00,75.0,62.0,-100.00,North,9,2.0,9.0,63,0.00,,,0.00,753.000000,,2013-06-10 17:03:00,
2013-06-10 12:12:00,76.0,62.0,-100.00,NE,47,2.0,8.0,61,0.00,,,-99.99,700.000000,,2013-06-10 17:12:00,
2013-06-10 12:38:00,76.0,62.0,-100.00,NE,47,2.0,8.0,61,0.00,,,-99.99,700.000000,,2013-06-10 17:38:00,
2013-06-10 12:48:00,76.0,62.0,-100.00,NE,47,2.0,8.0,61,0.00,,,-99.99,700.000000,,2013-06-10 17:48:00,
2013-06-10 12:58:00,76.0,62.0,-100.00,NE,47,2.0,8.0,61,0.00,,,-99.99,700.000000,,2013-06-10 17:58:00,
2013-06-10 13:07:00,76.0,62.0,-100.00,NE,47,2.0,8.0,61,0.00,,,-99.99,700.000000,,2013-06-10 18:07:00,
2013-06-10 13:12:00,77.0,62.0,-100.00,NE,45,4.0,9.0,59,0.00,,,0.00,656.000000,,2013-06-10 18:12:00,
2013-06-10 13:35:00,77.0,62.0,-100.00,NE,45,4.0,9.0,59,0.00,,,0.00,656.000000,,2013-06-10 18:35:00,
2013-06-10 13:48:00,77.0,62.0,-100.00,NE,45,4.0,9.0,59,0.00,,,0.00,656.000000,,2013-06-10 18:48:00,
2013-06-10 13:55:00,77.0,62.0,-100.00,NE,45,4.0,9.0,59,0.00,,,0.00,656.000000,,2013-06-10 18:55:00,
2013-06-10 14:03:00,77.0,62.0,-100.00,NE,45,4.0,9.0,59,0.00,,,0.00,656.000000,,2013-06-10 19:03:00,
2013-06-10 14:12:00,78.0,62.0,-100.00,ENE,78,3.0,9.0,57,0.00,,,0.00,543.000000,,2013-06-10 19:12:00,
2013-06-10 14:33:00,78.0,62.0,-100.00,ENE,78,3.0,9.0,57,0.00,,,0.00,543.000000,,2013-06-10 19:33:00,
2013-06-10 14:43:00,78.0,62.0,-100.00,ENE,78,3.0,9.0,57,0.00,,,0.00,543.000000,,2013-06-10 19:43:00,
2013-06-10 14:53:00,78.0,62.0,-100.00,ENE,78,3.0,9.0,57,0.00,,,0.00,543.000000,,2013-06-10 19:53:00,
2013-06-10 15:03:00,78.0,62.0,-100.00,ENE,78,3.0,9.0,57,0.00,,,0.00,543.000000,,2013-06-10 20:03:00,
2013-06-10 15:12:00,77.0,63.0,-100.00,ENE,66,2.0,8.0,61,0.00,,,0.00,382.000000,,2013-06-10 20:12:00,
2013-06-10 15:32:00,77.0,63.0,-100.00,ENE,66,2.0,8.0,61,0.00,,,0.00,382.000000,,2013-06-10 20:32:00,
2013-06-10 15:43:00,77.0,63.0,-100.00,ENE,66,2.0,8.0,61,0.00,,,0.00,382.000000,,2013-06-10 20:43:00,
2013-06-10 15:53:00,77.0,63.0,-100.00,ENE,66,2.0,8.0,61,0.00,,,0.00,382.000000,,2013-06-10 20:53:00,
2013-06-10 16:02:00,77.0,63.0,-100.00,ENE,66,2.0,8.0,61,0.00,,,0.00,382.000000,,2013-06-10 21:02:00,
2013-06-10 16:12:00,77.0,62.0,-100.00,East,92,1.0,8.0,59,0.00,,,0.00,307.000000,,2013-06-10 21:12:00,
2013-06-10 16:34:00,77.0,62.0,-100.00,East,92,1.0,8.0,59,0.00,,,0.00,307.000000,,2013-06-10 21:34:00,
2013-06-10 16:43:00,77.0,62.0,-100.00,East,92,1.0,8.0,59,0.00,,,0.00,307.000000,,2013-06-10 21:43:00,
2013-06-10 16:53:00,77.0,62.0,-100.00,East,92,1.0,8.0,59,0.00,,,0.00,307.000000,,2013-06-10 21:53:00,
2013-06-10 17:03:00,77.0,62.0,-100.00,East,92,1.0,8.0,59,0.00,,,0.00,307.000000,,2013-06-10 22:03:00,
2013-06-10 17:12:00,78.0,61.0,-100.00,ENE,73,1.0,4.0,56,0.00,,,0.00,269.000000,,2013-06-10 22:12:00,
2013-06-10 17:33:00,78.0,61.0,-100.00,ENE,73,1.0,4.0,56,0.00,,,0.00,269.000000,,2013-06-10 22:33:00,
2013-06-10 17:42:00,78.0,61.0,-100.00,ENE,73,1.0,4.0,56,0.00,,,0.00,269.000000,,2013-06-10 22:42:00,
2013-06-10 17:52:00,78.0,61.0,-100.00,ENE,73,1.0,4.0,56,0.00,,,0.00,269.000000,,2013-06-10 22:52:00,
2013-06-10 18:02:00,78.0,61.0,-100.00,ENE,73,1.0,4.0,56,0.00,,,0.00,269.000000,,2013-06-10 23:02:00,
2013-06-10 18:12:00,79.0,61.0,-100.00,ENE,60,0.0,4.0,54,0.00,,,0.00,263.000000,,2013-06-10 23:12:00,
2013-06-10 18:32:00,79.0,61.0,-100.00,ENE,60,0.0,4.0,54,0.00,,,0.00,263.000000,,2013-06-10 23:32:00,
2013-06-10 18:42:00,79.0,61.0,-100.00,ENE,60,0.0,4.0,54,0.00,,,0.00,263.000000,,2013-06-10 23:42:00,
2013-06-10 18:52:00,79.0,61.0,-100.00,ENE,60,0.0,4.0,54,0.00,,,0.00,263.000000,,2013-06-10 23:52:00,
2013-06-10 19:02:00,79.0,61.0,-100.00,ENE,60,0.0,4.0,54,0.00,,,0.00,263.000000,,2013-06-11 00:02:00,
2013-06-10 19:12:00,78.0,62.0,-100.00,South,176,0.0,5.0,57,0.00,,,0.00,192.000000,,2013-06-11 00:12:00,
2013-06-10 19:32:00,78.0,62.0,-100.00,South,176,0.0,5.0,57,0.00,,,0.00,192.000000,,2013-06-11 00:32:00,
2013-06-10 19:43:00,78.0,62.0,-100.00,South,176,0.0,5.0,57,0.00,,,0.00,192.000000,,2013-06-11 00:43:00,
2013-06-10 19:52:00,78.0,62.0,-100.00,South,176,0.0,5.0,57,0.00,,,0.00,192.000000,,2013-06-11 00:52:00,
2013-06-10 20:02:00,78.0,62.0,-100.00,South,176,0.0,5.0,57,0.00,,,0.00,192.000000,,2013-06-11 01:02:00,
2013-06-10 20:12:00,73.0,65.0,-100.00,SE,146,0.0,2.0,76,0.00,,,0.00,58.000000,,2013-06-11 01:12:00,
2013-06-10 20:33:00,73.0,65.0,-100.00,SE,146,0.0,2.0,76,0.00,,,0.00,58.000000,,2013-06-11 01:33:00,
2013-06-10 20:42:00,73.0,65.0,-100.00,SE,146,0.0,2.0,76,0.00,,,0.00,58.000000,,2013-06-11 01:42:00,
2013-06-10 20:53:00,73.0,65.0,-100.00,SE,146,0.0,2.0,76,0.00,,,0.00,58.000000,,2013-06-11 01:53:00,
2013-06-10 21:02:00,73.0,65.0,-100.00,SE,146,0.0,2.0,76,0.00,,,0.00,58.000000,,2013-06-11 02:02:00,
2013-06-10 21:12:00,69.0,66.0,-100.00,SSE,147,0.0,0.0,91,0.00,,,0.00,4.000000,,2013-06-11 02:12:00,
2013-06-10 21:32:00,69.0,66.0,-100.00,SSE,147,0.0,0.0,91,0.00,,,0.00,4.000000,,2013-06-11 02:32:00,
2013-06-10 21:43:00,69.0,66.0,-100.00,SSE,147,0.0,0.0,91,0.00,,,0.00,4.000000,,2013-06-11 02:43:00,
2013-06-10 21:52:00,69.0,66.0,-100.00,SSE,147,0.0,0.0,91,0.00,,,0.00,4.000000,,2013-06-11 02:52:00,
2013-06-10 22:02:00,69.0,66.0,-100.00,SSE,147,0.0,0.0,91,0.00,,,0.00,4.000000,,2013-06-11 03:02:00,
2013-06-10 22:12:00,68.0,65.0,-100.00,West,277,0.0,2.0,90,0.00,,,0.00,0.000000,,2013-06-11 03:12:00,
2013-06-10 22:33:00,68.0,65.0,-100.00,West,277,0.0,2.0,90,0.00,,,0.00,0.000000,,2013-06-11 03:33:00,
2013-06-10 22:43:00,68.0,65.0,-100.00,West,277,0.0,2.0,90,0.00,,,0.00,0.000000,,2013-06-11 03:43:00,
2013-06-10 22:53:00,68.0,65.0,-100.00,West,277,0.0,2.0,90,0.00,,,0.00,0.000000,,2013-06-11 03:53:00,
2013-06-10 23:03:00,68.0,65.0,-100.00,West,277,0.0,2.0,90,0.00,,,0.00,0.000000,,2013-06-11 04:03:00,
2013-06-10 23:12:00,64.0,62.0,-100.00,SW,232,0.0,3.0,94,0.00,,,0.00,0.000000,,2013-06-11 04:12:00,
2013-06-10 23:33:00,64.0,62.0,-100.00,SW,232,0.0,3.0,94,0.00,,,0.00,0.000000,,2013-06-11 04:33:00,
2013-06-10 23:43:00,64.0,62.0,-100.00,SW,232,0.0,3.0,94,0.00,,,0.00,0.000000,,2013-06-11 04:43:00,
2013-06-10 23:53:00,64.0,62.0,-100.00,SW,232,0.0,3.0,94,0.00,,,0.00,0.000000,,2013-06-11 04:53:00,